sat.trackr.live / text

‹ back to catalog

CHECKMATE 2

NORAD 56167 · 2023-050F

PAYLOAD ACTIVE UNKNOWN

§ Identity

Operator
Country
US
Launch date
2023-04-02
Launch site
AFWTR
Launch vehicle
Mass (kg)
RCS (m²)

External: N2YO · Heavens-Above · Gunter

§ Orbital elements

Epoch: 2026-09-21T22:11:22.346880Z

Period
103.96 min
Inclination
81.0078°
Eccentricity
0.0007758
Mean motion
13.85174486 rev/d
Perigee alt
939.9 km
Apogee alt
951.3 km
Semi-major
7,323.7 km
B*
4.6193e-5
RAAN
338.9133°
Arg perigee
60.9454°
Mean anomaly
299.2478°
Rev number
17,550

§ Raw data

CHECKMATE 21 56167U 23050F   26264.92456420  .00000064  00000+0  46193-4 0  99932 56167  81.0078 338.9133 0007758  60.9454 299.2478 13.85174486175502

JSON: /api/v1/satellites/56167 · /tle

For live sub-satellite position, see the globe view (requires WebGL).

§ Visibility from observer

Set your observer location to see the next 7 days of passes ≥ 10°. The values pass through the URL so the page stays shareable.

No JS? Fill the form by hand. The geolocation button needs JavaScript.